CW1575 Weather Reports


Display with metric or nautical units.
time (UTC)temp
F
wind
direction
speed
MPH
gust
MPH
rain 1hr
in
rain 24hr
in
rain mn
in
humidity
%
barometer
mb
20260502221504 73 77 2.0 7.0 0.00 0.00 0.00 11 1010.1
20260502220004 73 0 4.0 9.0 0.00 0.00 0.00 11 1010.2
20260502215504 73 49 2.0 8.0 0.00 0.00 0.00 11 1010.3
20260502214005 73 0 1.0 9.0 0.00 0.00 0.00 11 1010.8
20260502213504 73 0 3.0 6.0 0.00 0.00 0.00 11 1010.9
20260502213005 73 0 2.0 5.0 0.00 0.00 0.00 11 1011.0
20260502212504 73 0 2.0 6.0 0.00 0.00 0.00 10 1011.3
20260502211504 73 0 2.0 3.0 0.00 0.00 0.00 11 1011.4
20260502211004 73 0 2.0 6.0 0.00 0.00 0.00 11 1011.5
20260502210504 73 0 1.0 3.0 0.00 0.00 0.00 12 1011.7
20260502210004 73 0 1.0 5.0 0.00 0.00 0.00 12 1011.8
20260502205504 73 0 5.0 9.0 0.00 0.00 0.00 10 1011.8
20260502204504 73 0 3.0 6.0 0.00 0.00 0.00 12 1012.0
20260502204004 73 0 2.0 6.0 0.00 0.00 0.00 12 1012.1
20260502203004 73 0 1.0 6.0 0.00 0.00 0.00 15 1012.2
20260502202504 73 0 3.0 8.0 0.00 0.00 0.00 14 1012.3
20260502201504 72 0 1.0 5.0 0.00 0.00 0.00 14 1012.3
20260502201005 72 0 2.0 6.0 0.00 0.00 0.00 14 1012.4
20260502200504 72 0 1.0 3.0 0.00 0.00 0.00 14 1012.5
20260502200004 71 0 1.0 3.0 0.00 0.00 0.00 16 1012.6
20260502195504 71 0 1.0 3.0 0.00 0.00 0.00 15 1012.6
20260502195004 71 0 2.0 5.0 0.00 0.00 0.00 15 1012.8
20260502193503 71 0 3.0 6.0 0.00 0.00 0.00 16 1013.0
20260502193004 71 0 1.0 5.0 0.00 0.00 0.00 17 1013.2
20260502192504 71 0 3.0 8.0 0.00 0.00 0.00 18 1013.2
20260502192004 70 0 1.0 6.0 0.00 0.00 0.00 18 1013.4
20260502191504 70 0 2.0 6.0 0.00 0.00 0.00 17 1013.4
20260502190504 70 0 2.0 3.0 0.00 0.00 0.00 18 1013.5
20260502190004 70 0 3.0 6.0 0.00 0.00 0.00 17 1013.6
20260502185504 70 0 1.0 6.0 0.00 0.00 0.00 17 1013.7
20260502185003 70 0 2.0 3.0 0.00 0.00 0.00 18 1013.8
20260502184504 69 0 1.0 3.0 0.00 0.00 0.00 18 1013.8
20260502184004 70 0 1.0 3.0 0.00 0.00 0.00 17 1014.0
20260502183503 70 0 0.0 2.0 0.00 0.00 0.00 20 1014.1
20260502183004 70 0 2.0 3.0 0.00 0.00 0.00 19 1014.2
20260502182504 69 0 1.0 6.0 0.00 0.00 0.00 19 1014.3
20260502182003 69 0 1.0 3.0 0.00 0.00 0.00 19 1014.3
20260502180504 69 0 1.0 2.0 0.00 0.00 0.00 21 1014.6
20260502164004 67 0 2.0 3.0 0.00 0.00 0.00 22 1015.3
20260502163503 67 0 2.0 3.0 0.00 0.00 0.00 22 1015.5
20260502162504 66 0 1.0 3.0 0.00 0.00 0.00 22 1015.6
20260502162004 66 0 1.0 3.0 0.00 0.00 0.00 24 1015.6
20260502161504 65 0 1.0 3.0 0.00 0.00 0.00 23 1015.7
20260502161004 65 0 2.0 5.0 0.00 0.00 0.00 24 1015.8
20260502160504 64 0 2.0 3.0 0.00 0.00 0.00 25 1015.8
20260502152004 59 0 0.0 2.0 0.00 0.00 0.00 33 1016.4
20260502151504 58 0 2.0 3.0 0.00 0.00 0.00 32 1016.5
20260502151004 58 0 1.0 2.0 0.00 0.00 0.00 34 1016.5
20260502150503 57 0 1.0 3.0 0.00 0.00 0.00 35 1016.7
20260502130503 34 0 0.0 0.0 0.00 0.00 0.00 72 1016.8
20260502122504 35 0 0.0 0.0 0.00 0.00 0.00 68 1016.6
20260502122003 35 0 0.0 0.0 0.00 0.00 0.00 67 1016.4
20260502121504 35 0 0.0 0.0 0.00 0.00 0.00 67 1016.3
20260502120505 35 0 0.0 0.0 0.00 0.00 0.00 67 1016.3
20260502115505 35 0 0.0 0.0 0.00 0.00 0.00 67 1016.3
20260502114005 36 0 0.0 0.0 0.00 0.00 0.00 66 1016.2
20260502113505 36 0 0.0 0.0 0.00 0.00 0.00 66 1016.2
20260502113006 36 0 0.0 0.0 0.00 0.00 0.00 66 1016.2
20260502112505 36 0 0.0 0.0 0.00 0.00 0.00 66 1016.1
20260502112005 36 0 0.0 0.0 0.00 0.00 0.00 66 1016.1
20260502111506 36 0 0.0 1.0 0.00 0.00 0.00 66 1016.1
20260502111006 36 0 1.0 3.0 0.00 0.00 0.00 66 1016.0
20260502110506 36 0 0.0 1.0 0.00 0.00 0.00 65 1016.1
20260502110005 36 0 0.0 0.0 0.00 0.00 0.00 65 1016.1
20260502105505 36 0 0.0 1.0 0.00 0.00 0.00 65 1016.1
20260502105006 36 0 0.0 0.0 0.00 0.00 0.00 64 1016.1
20260502104506 37 0 0.0 0.0 0.00 0.00 0.00 64 1016.1
20260502104005 37 0 0.0 0.0 0.00 0.00 0.00 64 1016.1
20260502103505 37 0 0.0 0.0 0.00 0.00 0.00 63 1016.1
20260502103005 37 0 0.0 0.0 0.00 0.00 0.00 64 1016.1
20260502102506 37 0 0.0 0.0 0.00 0.00 0.00 63 1016.1
20260502102006 37 0 0.0 0.0 0.00 0.00 0.00 63 1016.1
20260502101506 37 0 0.0 0.0 0.00 0.00 0.00 63 1016.1
20260502101006 37 0 0.0 0.0 0.00 0.00 0.00 63 1015.9
20260502100506 37 0 0.0 0.0 0.00 0.00 0.00 63 1015.9
20260502091506 39 0 0.0 0.0 0.00 0.00 0.00 58 1015.6
20260502091006 40 0 0.0 0.0 0.00 0.00 0.00 58 1015.6
20260502090505 40 0 0.0 0.0 0.00 0.00 0.00 58 1015.7
20260502071506 44 0 0.0 0.0 0.00 0.00 0.00 47 1016.1
20260502071005 44 0 0.0 0.0 0.00 0.00 0.00 46 1016.1
20260502070505 44 0 0.0 0.0 0.00 0.00 0.00 46 1016.1
20260502070006 45 0 0.0 0.0 0.00 0.00 0.00 45 1016.1
20260502065005 45 0 0.0 0.0 0.00 0.00 0.00 45 1016.2
20260502064006 46 0 0.0 0.0 0.00 0.00 0.00 45 1016.2
20260502063506 46 0 0.0 0.0 0.00 0.00 0.00 44 1016.3
20260502063005 46 0 0.0 0.0 0.00 0.00 0.00 44 1016.3
20260502062505 46 0 0.0 0.0 0.00 0.00 0.00 44 1016.3
20260502062005 46 0 0.0 0.0 0.00 0.00 0.00 44 1016.4
20260502061005 47 0 0.0 0.0 0.00 0.00 0.00 43 1016.3
20260502060505 47 0 0.0 0.0 0.00 0.00 0.00 43 1016.4
20260502060006 47 0 0.0 0.0 0.00 0.00 0.00 43 1016.4
20260502055505 47 0 0.0 0.0 0.00 0.00 0.00 42 1016.4
20260502055005 47 0 0.0 0.0 0.00 0.00 0.00 42 1016.4
20260502054506 47 0 0.0 0.0 0.00 0.00 0.00 42 1016.4
20260502054005 48 0 0.0 0.0 0.00 0.00 0.00 43 1016.4
20260502053505 48 0 0.0 0.0 0.00 0.00 0.00 42 1016.4
20260502053006 48 0 0.0 0.0 0.00 0.00 0.00 42 1016.5
20260502052505 48 0 0.0 2.0 0.00 0.00 0.00 42 1016.4
20260502052005 48 0 0.0 1.0 0.00 0.00 0.00 41 1016.3
20260502051506 48 0 0.0 1.0 0.00 0.00 0.00 40 1016.4
20260502051005 48 0 0.0 0.0 0.00 0.00 0.00 39 1016.4
20260502050005 49 0 0.0 0.0 0.00 0.00 0.00 39 1016.3
20260502045005 49 0 0.0 0.0 0.00 0.00 0.00 38 1016.4
20260502044505 49 0 0.0 0.0 0.00 0.00 0.00 38 1016.3
20260502044006 49 0 0.0 0.0 0.00 0.00 0.00 38 1016.3
20260502043505 49 0 0.0 0.0 0.00 0.00 0.00 38 1016.3
20260502043005 50 0 0.0 0.0 0.00 0.00 0.00 38 1016.3
20260502042505 50 0 0.0 0.0 0.00 0.00 0.00 38 1016.2
20260502041505 50 0 0.0 0.0 0.00 0.00 0.00 37 1016.1
20260502041005 51 0 0.0 0.0 0.00 0.00 0.00 37 1016.1
20260502040505 51 0 0.0 0.0 0.00 0.00 0.00 36 1016.1
20260502035505 51 0 0.0 0.0 0.00 0.00 0.00 34 1015.9
20260502035006 52 0 0.0 1.0 0.00 0.00 0.00 33 1015.8
20260502034005 52 0 0.0 1.0 0.00 0.00 0.00 31 1015.6
20260502033506 52 0 0.0 2.0 0.00 0.00 0.00 31 1015.5
20260502033005 53 0 0.0 1.0 0.00 0.00 0.00 30 1015.5
20260502032505 53 0 0.0 1.0 0.00 0.00 0.00 29 1015.3
20260502032006 53 0 0.0 1.0 0.00 0.00 0.00 28 1015.2
20260502031005 54 0 0.0 1.0 0.00 0.00 0.00 27 1015.1
20260502030505 54 0 0.0 1.0 0.00 0.00 0.00 27 1015.1
20260502030005 54 0 0.0 1.0 0.00 0.00 0.00 27 1015.0
20260502025505 54 0 0.0 1.0 0.00 0.00 0.00 26 1014.8
20260502025005 55 0 1.0 3.0 0.00 0.00 0.00 26 1014.8
20260502024505 55 0 0.0 1.0 0.00 0.00 0.00 26 1014.8
20260502024005 55 0 1.0 5.0 0.00 0.00 0.00 26 1014.7
20260502023505 56 0 0.0 2.0 0.00 0.00 0.00 26 1014.5
20260502023005 56 0 0.0 1.0 0.00 0.00 0.00 24 1014.5
20260502022005 57 0 0.0 2.0 0.00 0.00 0.00 24 1014.4
20260502021505 57 0 0.0 2.0 0.00 0.00 0.00 24 1014.4
20260502021005 57 0 1.0 3.0 0.00 0.00 0.00 23 1014.4
20260502020505 57 0 0.0 2.0 0.00 0.00 0.00 23 1014.3
20260502020005 58 0 0.0 2.0 0.00 0.00 0.00 23 1014.3
20260502015505 58 0 1.0 5.0 0.00 0.00 0.00 22 1014.2
20260502015005 58 0 3.0 10.0 0.00 0.00 0.00 22 1014.2
20260502014505 59 0 2.0 6.0 0.00 0.00 0.00 22 1014.1
20260502014005 59 0 3.0 10.0 0.00 0.00 0.00 21 1014.1
20260502013506 59 0 2.0 5.0 0.00 0.00 0.00 21 1014.0
20260502013006 60 0 0.0 2.0 0.00 0.00 0.00 21 1014.0
20260502012005 61 0 6.0 10.0 0.00 0.00 0.00 20 1013.9
20260502011505 61 0 2.0 6.0 0.00 0.00 0.00 20 1013.8
20260502011005 62 0 1.0 3.0 0.00 0.00 0.00 20 1013.8
20260502010505 62 0 2.0 8.0 0.00 0.00 0.00 19 1013.8
20260502005505 63 0 2.0 9.0 0.00 0.00 0.00 19 1013.8
20260502005005 63 0 2.0 3.0 0.00 0.00 0.00 19 1013.8
20260502004505 63 0 3.0 8.0 0.00 0.00 0.00 19 1013.8
20260502003505 64 0 3.0 9.0 0.00 0.00 0.00 19 1013.8
20260502002005 64 0 3.0 5.0 0.00 0.00 0.00 19 1014.0
20260502000505 63 0 3.0 12.0 0.00 0.00 0.00 19 1013.9
20260502000005 63 0 2.0 8.0 0.00 0.00 0.00 19 1013.9
20260501235505 63 0 0.0 6.0 0.00 0.00 0.00 18 1013.9
20260501235005 63 0 3.0 8.0 0.00 0.00 0.00 19 1014.0
20260501234505 63 0 3.0 6.0 0.00 0.00 0.00 19 1014.0
20260501234005 63 0 5.0 10.0 0.00 0.00 0.00 19 1014.0
20260501233505 63 0 0.0 2.0 0.00 0.00 0.00 19 1014.0
20260501232505 63 0 1.0 3.0 0.00 0.00 0.00 19 1014.1
20260501232005 63 0 1.0 3.0 0.00 0.00 0.00 19 1014.0
20260501231506 62 0 3.0 6.0 0.00 0.00 0.00 19 1014.0
20260501231005 62 0 2.0 8.0 0.00 0.00 0.00 19 1014.0
20260501230505 63 0 1.0 6.0 0.00 0.00 0.00 19 1014.0
20260501230004 63 0 2.0 8.0 0.00 0.00 0.00 19 1013.9
20260501225505 63 0 2.0 5.0 0.00 0.00 0.00 20 1014.1
20260501224505 63 0 2.0 5.0 0.00 0.00 0.00 19 1014.1
20260501224005 63 0 0.0 10.0 0.00 0.00 0.00 20 1014.0
20260501223505 63 0 4.0 9.0 0.00 0.00 0.00 20 1014.2
20260501223005 63 0 1.0 8.0 0.00 0.00 0.00 19 1014.2
20260501222505 63 0 1.0 3.0 0.00 0.00 0.00 19 1014.2
20260501222005 63 0 1.0 2.0 0.00 0.00 0.00 20 1014.3